sat.trackr.live / text

‹ back to catalog

STARLINK-4080

NORAD 52835 · 2022-062F

PAYLOAD ACTIVE UNKNOWN

§ Identity

Operator
Country
US
Launch date
2022-06-17
Launch site
AFETR
Launch vehicle
Mass (kg)
RCS (m²)

Purposes: comms

External: N2YO · Heavens-Above · Gunter

§ Orbital elements

Epoch: 2026-05-24T23:59:41.886240Z

Period
95.44 min
Inclination
53.2148°
Eccentricity
0.0002352
Mean motion
15.08836231 rev/d
Perigee alt
538.1 km
Apogee alt
541.4 km
Semi-major
6,917.9 km
B*
1.8690e-5
RAAN
51.5514°
Arg perigee
105.8085°
Mean anomaly
254.3167°
Rev number
21,730

§ Raw data

STARLINK-40801 52835U 22062F   26144.99979035  .00000009  00000+0  18690-4 0  99992 52835  53.2148  51.5514 0002352 105.8085 254.3167 15.08836231217306

JSON: /api/v1/satellites/52835 · /tle

For live sub-satellite position, see the globe view (requires WebGL).

§ Visibility from observer

Set your observer location to see the next 7 days of passes ≥ 10°. The values pass through the URL so the page stays shareable.

No JS? Fill the form by hand. The geolocation button needs JavaScript.